Skip to main content.
NOAA NWS Hourly Roundups by Site

NOAA NWS Hourly Roundups by Site

Regional Weather Roundup for Omaha, NE

To Select Another Site Choose from List

Select Site:  

000
ASUS43 KOAX 031110
RWRNE

WEATHER ROUNDUP FOR NEBRASKA
NATIONAL WEATHER SERVICE OMAHA NE
600 AM CDT TUE AUG 03 2021

NOTES: SATELLITE DATA IS BEING USED TO AUGMENT CLOUD COVER ABOVE
       12000 FEET.
       "FAIR" INDICATES FEW OR NO CLOUDS BELOW 12,000 FEET WITH NO
       SIGNIFICANT WEATHER AND/OR OBSTRUCTIONS TO VISIBILITY.


NEZ001>004-019>022-054>056-031200-
NEBRASKA PANHANDLE

CITY           SKY/WX    TMP DP  RH WIND       PRES   REMARKS
SCOTTSBLUFF    CLEAR     60  50  69 CALM      30.10S
ALLIANCE       CLEAR     54  50  86 W6        30.09S
CHADRON        CLEAR     56  46  69 W6        30.05F
GORDON         CLEAR     53  52  95 CALM      30.07F
KIMBALL        CLEAR     58  50  73 W7        30.16S
SIDNEY         CLEAR     58  52  80 S9        30.12S
$$

NEZ057>060-069>072-079>082-031200-
SOUTHWEST NEBRASKA

CITY           SKY/WX    TMP DP  RH WIND       PRES   REMARKS
NORTH PLATTE   CLEAR     57  52  83 E5        30.09S
IMPERIAL       CLEAR     59  52  77 SW8       30.09S
LEXINGTON      CLEAR     62  55  77 SE6       30.12F
MCCOOK         CLEAR     58  51  78 SE7       30.10S
OGALLALA       CLEAR     58  54  84 CALM      30.08F
$$

NEZ005>010-023>029-035>040-094-031200-
NORTH CENTRAL NEBRASKA

CITY           SKY/WX    TMP DP  RH WIND       PRES   REMARKS
VALENTINE      CLEAR     63  54  72 E6        30.08S
AINSWORTH      CLEAR     62  56  83 S9        30.09S
BROKEN BOW     PTCLDY    60  57  89 SE7       30.11F
O`NEILL        PTCLDY    58  55  88 SE6       30.12S
ORD            MOCLDY    60  57  89 CALM      30.11S
THEDFORD       CLEAR     59  52  78 SE3       30.10S
$$

NEZ041-046>049-061>064-073>077-083>087-031200-
SOUTH CENTRAL NEBRASKA

CITY           SKY/WX    TMP DP  RH WIND       PRES   REMARKS
GRAND ISLAND   PTCLDY    62  55  77 S9        30.14S
AURORA         CLEAR     58  56  90 SE5       30.15S
HASTINGS       CLEAR     62  56  80 S10       30.14S
HEBRON         CLEAR     56  55  96 CALM      30.15R FOG
HOLDREGE       PTCLDY    59  56  89 SE5       30.13S
KEARNEY        MOCLDY    59  57  93 S7        30.14S
YORK           MOCLDY    59  57  94 SE3       30.14S
$$

NEZ011>018-030>034-042>045-031200-
NORTHEAST NEBRASKA

CITY           SKY/WX    TMP DP  RH WIND       PRES   REMARKS
NORFOLK        CLEAR     57  53  86 E3        30.13S FOG
ALBION         CLEAR     57  57  98 CALM      30.13F FOG
BLAIR          CLEAR     60  56  89 CALM      30.14R
COLUMBUS       CLEAR     56  56 100 CALM      30.15S FOG
FREMONT        CLEAR     59  57  93 CALM      30.14S
TEKAMAH        CLEAR     54  52  93 W5        30.14R FOG
WAYNE          CLEAR     52  51  97 CALM      30.14S FOG
$$

NEZ050>053-065>068-078-088>093-031200-
SOUTHEAST NEBRASKA

CITY           SKY/WX    TMP DP  RH WIND       PRES   REMARKS
LINCOLN        CLEAR     55  52  89 CALM      30.15S
OMAHA EPPLEY   PTCLDY    59  58  96 CALM      30.13S
BEATRICE       CLEAR     53  51  94 CALM      30.15R
FALLS CITY     CLEAR     56  55  97 CALM      30.13S
NEBRASKA CITY  CLEAR     58  58 100 CALM      30.14S
PLATTSMOUTH    CLEAR     59  57  92 CALM      30.14S
$$

NEZ044-045-051>053-067-031200-
OMAHA AREA

CITY           SKY/WX    TMP DP  RH WIND       PRES   REMARKS
OMAHA EPPLEY   PTCLDY    59  58  96 CALM      30.13S
BLAIR          CLEAR     60  56  89 CALM      30.14R
FREMONT        CLEAR     59  57  93 CALM      30.14S
MILLARD        CLEAR     60  57  91 CALM      30.14R FOG
OFFUTT AFB     CLEAR     59  57  95 SW3       30.15S
PLATTSMOUTH    CLEAR     59  57  92 CALM      30.14S
WAHOO          CLEAR     56  56 100 CALM      30.14S
$$


 

View Past Reports for Omaha, NE.

Products Courtesy of NOAA-NWS
NWS Information Parsing Script by Ken True at Saratoga Weather - Script by SE Lincoln Weather.